Location: Albany
(42.6526°N, 73.7562°W)
Time: 01:58:28
(UTC+00:00)

Meteor 2-20 Rocket - Pass Details

Date: 19 November 2019
Orbit: 941 x 958 km, 82.5° (Epoch: 08 December)

Event Time Altitude Azimuth Distance (km) Brightness Sun altitude
Rises 22:08:35 0° 181° (S) 3,604 7.8 -7.5°
Reaches altitude 10° 22:11:03 10° 179° (S) 2,665 7.0 -7.9°
Maximum altitude 22:17:08 75° 95° (E) 988 4.4 -9.0°
Drops below altitude 10° 22:23:17 10° 12° (NNE) 2,694 6.5 -10.1°
Sets 22:25:48 0° 10° (N) 3,646 7.2 -10.5°
